Tiempo atmosférico en la estación meteorológica de Becerreá, Lugo (1080 m.)



Fecha
DESCASC
Temp. máxima en grados centígrados (hora)
DESCASC
Temp. mínima en grados centígrados (hora)
DESCASC
Temp. media en grados centígrados
DESCASC
Racha de viento máxima en m/sg (hora)
DESCASC
Velocidad máxima media en intervalos de 10 minutos(hora)
DESCASC
Precipitaciones diarias en mm
DESCASC
Precipitaciones de 00:00 a 06:00 en mm
DESCASC
Precipitaciones de 06:00 a 12:00 en mm
DESCASC
Precipitaciones de 12:00 a 18:00 en mm
DESCASC
Precipitaciones de 18:00 a 24:00 en mm
DESCASC
13-10-2019 12.9 (00:00) 7.8 (23:59) 10.3 16.94 (08:30) 6.67 (08:40) 22.8 0 4.8 2.6 15.4
12-10-2019 19.9 (16:30) 12.7 (23:00) 16.3 15 (23:40) 6.67 (23:40) 0 0 0 0 0
11-10-2019 21.9 (14:50) 14.5 (02:30) 18.2 12.22 (15:30) 4.17 (22:00) 0 0 0 0 0
10-10-2019 17.7 (17:00) 6.4 (00:00) 12.1 5 (17:20) 3.06 (18:10) 0 0 0 0 0
09-10-2019 12.5 (17:30) 5.8 (00:00) 9.2 5.56 (02:50) 2.78 (02:50) 0 0 0 0 0
08-10-2019 16.2 (12:30) 7.9 (00:00) 12.1 6.94 (17:40) 3.61 (17:40) 6.2 0 0 2.8 3.4
07-10-2019 20.4 (17:30) 10.9 (00:00) 15.6 6.67 (15:10) 3.89 (08:50) 0 0 0 0 0
06-10-2019 17 (17:20) 8.9 (00:00) 12.9 5.28 (20:10) 3.33 (20:00) 0.6 0 0.6 0 0
05-10-2019 14.6 (17:40) 8.6 (00:00) 11.6 7.22 (16:40) 4.17 (16:10) 0 0 0 0 0
04-10-2019 14.8 (17:50) 9.7 (00:00) 12.3 5.83 (09:30) 3.06 (15:00) 4.6 2 2.6 0 0
03-10-2019 16.9 (16:10) 9.3 (00:00) 13.1 6.94 (06:50) 3.89 (00:30) 1.8 0 0 0 1.8
02-10-2019 13.7 (17:50) 8.2 (00:00) 10.9 10.28 (00:50) 4.17 (00:50) 0.4 0 0.4 0 0
01-10-2019 15.9 (15:00) 9.7 (00:00) 12.8 9.72 (13:00) 4.17 (15:30) 1 0 1 0 0
30-09-2019 20.2 (16:50) 13.4 (00:00) 16.8 7.5 (17:00) 3.61 (22:20) 0.2 0 0.2 0 0
29-09-2019 15.3 (15:50) 11.7 (00:00) 13.5 9.44 (03:40) 4.44 (04:20) 2.6 0 0 1.8 0.8
28-09-2019 19.5 (16:50) 7 (00:00) 13.3 7.22 (23:50) 3.33 (23:00) 0 0 0 0 0
27-09-2019 14.7 (17:00) 9.5 (00:00) 12.1 8.89 (11:00) 3.33 (03:40) 1.6 0 0.8 0.8 0
26-09-2019 17.8 (18:10) 8.8 (00:00) 13.3 8.33 (21:30) 4.17 (22:20) 0 0 0 0 0
25-09-2019 12.1 (17:10) 8.3 (00:00) 10.2 7.78 (04:30) 2.5 (04:30) 0.8 0.6 0.2 0 0
24-09-2019 13.7 (00:00) 8.9 (00:00) 11.3 16.11 (02:40) 7.22 (00:20) 7.4 2 5.2 0.2 0
23-09-2019 14.4 (22:30) 8.7 (00:00) 11.5 13.89 (21:40) 6.67 (23:50) 0.8 0 0 0.8 0
22-09-2019 13.6 (17:50) 7.8 (00:00) 10.7 11.11 (00:20) 3.89 (00:20) 2.4 0 0 2.4 0
21-09-2019 15.7 (16:30) 9.1 (00:00) 12.4 13.33 (21:10) 5.28 (21:00) 13.4 0 1.2 0.6 11.6
20-09-2019 22.4 (13:50) 14 (00:00) 18.2 10.56 (09:10) 5.28 (18:00) 5 0 0 4 1
19-09-2019 22.9 (17:00) 14.5 (00:00) 18.7 12.78 (18:50) 5.56 (18:50) 7.8 0 0 0 7.8
18-09-2019 23.1 (17:00) 12.2 (00:00) 17.7 8.89 (03:40) 5 (03:20) 0 0 0 0 0
17-09-2019 22.6 (14:50) 13 (00:00) 17.8 11.11 (22:30) 6.11 (22:30) 4.6 0 0.4 4 0.2
16-09-2019 22.3 (17:10) 13.1 (00:00) 17.7 5.83 (06:40) 3.33 (06:40) 0 0 0 0 0

Gráficas

Temp. máximas Temp. mínimas Temp. medias Precipitaciones Rachas de viento máximas Velocidades máximas media en intervalos de 10 minutos

Datos horarios

Fecha y hora oficial Temperatura (ºC) Velocidad del viento (km/h) Dirección del viento Racha (km/h) Dirección de racha Precipitación (mm) Presión (hPa) Tendencia (hPa) Humedad (%)
2019-10-15 23:00:00 7.9 19 Sur 42 Sudoeste 0 -- -- 99
2019-10-15 22:00:00 7.7 15 Sur 40 Sudoeste 0.2 -- -- 98
2019-10-15 21:00:00 7.8 16 Sur 45 Sudoeste 0 -- -- 96
2019-10-15 20:00:00 7.4 19 Sur 46 Sur 0 -- -- 97
2019-10-15 19:00:00 7.3 14 Sur 40 Sudoeste 0.6 -- -- 98
2019-10-15 18:00:00 7.5 12 Sur 36 Sudoeste 0.2 -- -- 95
2019-10-15 17:00:00 7.1 14 Sur 48 Sudoeste 0.2 -- -- 97
2019-10-15 16:00:00 7.6 12 Sur 40 Sudoeste 0 -- -- 97
2019-10-15 15:00:00 7.4 10 Sur 27 Sudoeste 0 -- -- 99
2019-10-15 14:00:00 7.5 9 Sur 30 Sur 0 -- -- 96
2019-10-15 13:00:00 7.1 14 Sudoeste 36 Sudoeste 0 -- -- 100
2019-10-15 12:00:00 6.9 10 Sudoeste 34 Sudoeste 0 -- -- 100
2019-10-15 11:00:00 6.5 8 Sur 26 Sur 0 -- -- 99
2019-10-15 10:00:00 5.8 6 Sur 25 Oeste 0 -- -- 100
2019-10-15 09:00:00 5.1 7 Sudoeste 29 Sudoeste 0 -- -- 100
2019-10-15 08:00:00 5.2 10 Sudoeste 28 Sudoeste 0 -- -- 100
2019-10-15 07:00:00 5.2 7 Sudoeste 26 Sur 0 -- -- 100
2019-10-15 06:00:00 5 6 Sur 27 Sur 0 -- -- 100
2019-10-15 05:00:00 5.2 6 Sur 25 Sudoeste 0 -- -- 100
2019-10-15 04:00:00 5.1 6 Sur 24 Sur 0 -- -- 100
2019-10-15 03:00:00 5.2 8 Sudoeste 25 Noroeste 0 -- -- 100
2019-10-15 02:00:00 5.1 6 Sudoeste 28 Sudoeste 0 -- -- 100
2019-10-15 01:00:00 5 10 Oeste 28 Sudoeste 0.2 -- -- 100
2019-10-15 00:00:00 4.9 9 Sudoeste 39 Oeste 0.2 -- -- 100
2019-10-14 23:00:00 4.7 12 Oeste 35 Oeste 0 -- -- 100
2019-10-14 22:00:00 4.6 12 Oeste 33 Oeste 0.8 -- -- 100
2019-10-14 21:00:00 4.6 9 Sudoeste 36 Sudoeste 0.4 -- -- 100
2019-10-14 20:00:00 4.5 9 Sudoeste 33 Oeste 0.6 -- -- 100
2019-10-14 19:00:00 4.3 4 Sur 28 Oeste 0 -- -- 100
2019-10-14 18:00:00 4.4 10 Oeste 38 Oeste 4.8 -- -- 100
2019-10-14 17:00:00 5.4 9 Sudoeste 39 Oeste 0.8 -- -- 100
2019-10-14 16:00:00 5.3 9 Oeste 31 Oeste 1.2 -- -- 100
2019-10-14 15:00:00 5.6 8 Sudoeste 39 Oeste 2.2 -- -- 100
2019-10-14 14:00:00 7.2 8 Sudoeste 26 Sudoeste 0.6 -- -- 99
2019-10-14 13:00:00 6.7 9 Sur 28 Sur 0 -- -- 98
2019-10-14 12:00:00 6.1 6 Sur 26 Sudoeste 2.8 -- -- 99
2019-10-14 11:00:00 6.4 6 Sudoeste 33 Sur 2.4 -- -- 98
2019-10-14 10:00:00 6.8 10 Sur 25 Sur 0 -- -- 93
2019-10-14 09:00:00 6.4 15 Sur 29 Sur 0 -- -- 91
2019-10-14 08:00:00 5.8 6 Sur 18 Sudeste 0 -- -- 100
2019-10-14 07:00:00 6.1 9 Sudeste 26 Sudeste 1.6 -- -- 100
2019-10-14 06:00:00 6.3 3 Sur 24 Sur 4 -- -- 100
2019-10-14 05:00:00 6.5 9 Sur 23 Sur 3 -- -- 100
2019-10-14 04:00:00 6.4 4 Sur 27 Sudoeste 1 -- -- 100
2019-10-14 03:00:00 6.5 6 Sudoeste 29 Oeste 8.6 -- -- 100
2019-10-14 02:00:00 6.8 14 Oeste 28 Oeste 6.4 -- -- 100
2019-10-14 01:00:00 7.3 12 Oeste 23 Oeste 2.2 -- -- 100
2019-10-14 00:00:00 7.8 11 Oeste 31 Noroeste 4.6 -- -- 100
2019-10-13 23:00:00 10.1 13 Oeste 26 Oeste 6.2 -- -- 98
2019-10-13 22:00:00 11.2 7 Sudoeste 25 Sur 1 -- -- 100
2019-10-13 21:00:00 11 8 Sudoeste 28 Sur 0.8 -- -- 100
2019-10-13 20:00:00 10.9 13 Sudoeste 32 Sur 1.6 -- -- 100
2019-10-13 19:00:00 10.7 11 Sur 29 Sudoeste 1.2 -- -- 99
2019-10-13 18:00:00 11 8 Sur 32 Sudoeste 0.4 -- -- 98
2019-10-13 17:00:00 11.2 12 Sur 31 Oeste 0.8 -- -- 97
2019-10-13 16:00:00 11.7 13 Sur 35 Sudoeste 0.4 -- -- 98
2019-10-13 15:00:00 12.2 14 Sur 33 Sudoeste 0.8 -- -- 97
2019-10-13 14:00:00 12.6 8 Sur 26 Sudoeste 0.2 -- -- 99
2019-10-13 13:00:00 12.1 12 Sur 36 Sur 0 -- -- 99
2019-10-13 12:00:00 12 9 Sur 37 Sur 0.8 -- -- 98
2019-10-13 11:00:00 11.5 19 Sur 40 Sur 1 -- -- 98
2019-10-13 10:00:00 11.2 17 Sur 40 Oeste 1.4 -- -- 98
2019-10-13 09:00:00 11.7 17 Sur 61 Sur 1.2 -- -- 95
2019-10-13 08:00:00 12.1 23 Sur 57 Sur 0.4 -- -- 89
2019-10-13 07:00:00 12.3 13 Sur 44 Sur 0 -- -- 80
2019-10-13 06:00:00 11.7 14 Sur 42 Sur 0 -- -- 80
2019-10-13 05:00:00 11.6 7 Sudoeste 34 Sur 0 -- -- 81
2019-10-13 04:00:00 11.4 10 Sur 40 Sudeste 0 -- -- 81
2019-10-13 03:00:00 11.4 9 Sur 23 Sur 0 -- -- 80
2019-10-13 02:00:00 11.7 13 Sur 33 Sur 0 -- -- 81
2019-10-13 01:00:00 12.1 11 Sudoeste 42 Sur 0 -- -- 81
2019-10-13 00:00:00 12.9 20 Sur 54 Sur 0 -- -- 79
2019-10-12 23:00:00 12.7 17 Sur 37 Sudoeste 0 -- -- 86
2019-10-12 22:00:00 13.3 18 Sudoeste 37 Sudoeste 0 -- -- 87
2019-10-12 21:00:00 13.5 15 Sudoeste 37 Sudoeste 0 -- -- 89
2019-10-12 20:00:00 15 14 Sudoeste 39 Oeste 0 -- -- 80
2019-10-12 19:00:00 17.6 14 Sudoeste 31 Oeste 0 -- -- 67
2019-10-12 18:00:00 19.4 12 Sudoeste 35 Sur 0 -- -- 63
2019-10-12 17:00:00 19.5 14 Sur 46 Sudeste 0 -- -- 60
2019-10-12 16:00:00 19.4 14 Sur 40 Sudoeste 0 -- -- 59
2019-10-12 15:00:00 19.4 13 Sur 41 Sur 0 -- -- 58
2019-10-12 14:00:00 18.8 9 Sur 35 Sudoeste 0 -- -- 61
2019-10-12 13:00:00 18.2 9 Sur 31 Sur 0 -- -- 62
2019-10-12 12:00:00 16 9 Sur 27 Sudoeste 0 -- -- 70
2019-10-12 11:00:00 14.5 9 Sur 30 Oeste 0 -- -- 75
2019-10-12 10:00:00 13.4 13 Sur 31 Sur 0 -- -- 78
2019-10-12 09:00:00 13.2 12 Sur 34 Sur 0 -- -- 76
2019-10-12 08:00:00 13.2 12 Sur 33 Sudoeste 0 -- -- 80
2019-10-12 07:00:00 13.4 12 Sur 26 Sudoeste 0 -- -- 79
2019-10-12 06:00:00 13.4 9 Sudoeste 24 Sur 0 -- -- 77
2019-10-12 05:00:00 13.6 10 Sudoeste 21 Sudoeste 0 -- -- 76
2019-10-12 04:00:00 12.8 11 Sudoeste 20 Sur 0 -- -- 80
2019-10-12 03:00:00 15.1 9 Sudoeste 30 Sur 0 -- -- 70
2019-10-12 02:00:00 13.5 8 Sudoeste 22 Sudoeste 0 -- -- 77
2019-10-12 01:00:00 14 13 Sudoeste 25 Sudoeste 0 -- -- 74
2019-10-12 00:00:00 14.8 11 Sudoeste 22 Sudoeste 0 -- -- 70
2019-10-11 23:00:00 14.9 10 Sudoeste 23 Oeste 0 -- -- 72
2019-10-11 22:00:00 15.9 15 Sudoeste 24 Oeste 0 -- -- 68
2019-10-11 21:00:00 16.3 7 Sudoeste 21 Sudoeste 0 -- -- 66
2019-10-11 20:00:00 17.6 10 Oeste 22 Sudoeste 0 -- -- 62
2019-10-11 19:00:00 19.9 7 Sudoeste 23 Oeste 0 -- -- 57
2019-10-11 18:00:00 21.2 9 Sudoeste 27 Sudoeste 0 -- -- 52
2019-10-11 17:00:00 21.3 10 Sudoeste 24 Sudoeste 0 -- -- 52
2019-10-11 16:00:00 21 8 Sudoeste 44 Sudeste 0 -- -- 51
2019-10-11 15:00:00 21.5 13 Sudoeste 37 Sudoeste 0 -- -- 47
2019-10-11 14:00:00 21.2 7 Sudoeste 32 Sudoeste 0 -- -- 36
2019-10-11 13:00:00 20.1 13 Sur 32 Sudoeste 0 -- -- 39
2019-10-11 12:00:00 18.8 10 Sur 28 Sur 0 -- -- 51
2019-10-11 11:00:00 17.1 10 Sur 26 Sur 0 -- -- 53
2019-10-11 10:00:00 16.2 11 Sur 28 Sur 0 -- -- 54
2019-10-11 09:00:00 15.4 9 Sur 22 Sudeste 0 -- -- 57
2019-10-11 08:00:00 15.6 13 Sur 25 Sur 0 -- -- 55
2019-10-11 07:00:00 15.2 10 Sur 21 Sudeste 0 -- -- 57
2019-10-11 06:00:00 15.1 7 Sur 22 Sur 0 -- -- 57
2019-10-11 05:00:00 15.6 12 Sur 29 Sudoeste 0 -- -- 54
2019-10-11 04:00:00 15.8 13 Sur 25 Sur 0 -- -- 54
2019-10-11 03:00:00 15.1 13 Sur 20 Sur 0 -- -- 56
2019-10-11 02:00:00 14.7 9 Sur 15 Sur 0 -- -- 59
2019-10-11 01:00:00 15.1 8 Sur 14 Sur 0 -- -- 60
2019-10-11 00:00:00 15.1 8 Sur 11 Sur 0 -- -- 61
2019-10-10 23:00:00 15.1 7 Sur 13 Sur 0 -- -- 62
2019-10-10 22:00:00 13.5 7 Sur 8 Sudeste 0 -- -- 79
2019-10-10 21:00:00 13.2 7 Oeste 10 Oeste 0 -- -- 84
2019-10-10 20:00:00 13.6 2 Sudeste 10 Oeste 0 -- -- 81
2019-10-10 19:00:00 16.1 7 Oeste 17 Sudoeste 0 -- -- 70
2019-10-10 18:00:00 16.9 10 Oeste 18 Oeste 0 -- -- 68
2019-10-10 17:00:00 17.7 7 Oeste 13 Noroeste 0 -- -- 68
2019-10-10 16:00:00 16.5 3 Norte 6 Norte 0 -- -- 67
2019-10-10 15:00:00 17 3 Sudoeste 12 Sudeste 0 -- -- 57
2019-10-10 14:00:00 14.7 3 Este 10 Sudeste 0 -- -- 71
2019-10-10 13:00:00 12.7 2 Este 10 Nordeste 0 -- -- 73
2019-10-10 12:00:00 11.6 3 Este 9 Este 0 -- -- 75
2019-10-10 11:00:00 9.7 2 Este 8 Este 0 -- -- 85
2019-10-10 10:00:00 8.5 2 Este 10 Este 0 -- -- 94
2019-10-10 09:00:00 6.7 0 Calma 14 Nordeste 0 -- -- 98
2019-10-10 08:00:00 6.6 2 Este 14 Este 0 -- -- 98
2019-10-10 07:00:00 6.5 3 Este 15 Este 0 -- -- 98
2019-10-10 06:00:00 6.8 4 Nordeste 17 Este 0 -- -- 98
2019-10-10 05:00:00 6.9 5 Nordeste 13 Nordeste 0 -- -- 98
2019-10-10 04:00:00 7 3 Nordeste 10 Este 0 -- -- 100
2019-10-10 03:00:00 6.8 0 Calma 8 Este 0 -- -- 100
2019-10-10 02:00:00 7.1 0 Calma 9 Sudeste 0 -- -- 100
2019-10-10 01:00:00 7.3 0 Calma 12 Nordeste 0 -- -- 99
2019-10-10 00:00:00 7.7 3 Nordeste 13 Nordeste 0 -- -- 98
2019-10-09 23:00:00 8 2 Nordeste 9 Nordeste 0 -- -- 96
2019-10-09 22:00:00 8.3 3 Noroeste 12 Noroeste 0 -- -- 96
2019-10-09 21:00:00 8.8 6 Noroeste 18 Oeste 0 -- -- 92
2019-10-09 20:00:00 9.5 8 Noroeste 18 Oeste 0 -- -- 84
2019-10-09 19:00:00 11.2 7 Noroeste 15 Oeste 0 -- -- 74
2019-10-09 18:00:00 12.4 6 Noroeste 16 Noroeste 0 -- -- 68
2019-10-09 17:00:00 12.3 5 Noroeste 15 Noroeste 0 -- -- 71
2019-10-09 16:00:00 11.3 5 Norte 14 Norte 0 -- -- 80
2019-10-09 15:00:00 10.7 4 Norte 14 Nordeste 0 -- -- 82
2019-10-09 14:00:00 10.6 5 Nordeste 14 Nordeste 0 -- -- 82
2019-10-09 13:00:00 10.2 2 Nordeste 8 Este 0 -- -- 96
2019-10-09 12:00:00 8.7 2 Nordeste 11 Norte 0 -- -- 100
2019-10-09 11:00:00 7.4 3 Nordeste 10 Norte 0 -- -- 100
2019-10-09 10:00:00 6.6 3 Norte 9 Norte 0 -- -- 100
2019-10-09 09:00:00 5.8 2 Noroeste 9 Noroeste 0 -- -- 100
2019-10-09 08:00:00 6.3 4 Noroeste 10 Noroeste 0 -- -- 100
2019-10-09 07:00:00 6.6 5 Noroeste 12 Noroeste 0 -- -- 100
2019-10-09 06:00:00 6.4 5 Noroeste 12 Norte 0 -- -- 100
2019-10-09 05:00:00 6.1 5 Oeste 13 Noroeste 0 -- -- 100
2019-10-09 04:00:00 6.2 8 Oeste 18 Oeste 0 -- -- 100
2019-10-09 03:00:00 6.8 9 Oeste 20 Noroeste 0 -- -- 100
2019-10-09 02:00:00 7.9 6 Noroeste 15 Oeste 0 -- -- 100
2019-10-09 01:00:00 8 7 Oeste 19 Oeste 0 -- -- 100
2019-10-09 00:00:00 7.9 10 Oeste 21 Oeste 0.2 -- -- 100
2019-10-08 23:00:00 9.2 7 Noroeste 21 Norte 0.4 -- -- 100
2019-10-08 22:00:00 9.9 8 Noroeste 17 Oeste 0.6 -- -- 100
2019-10-08 21:00:00 10.4 6 Noroeste 17 Noroeste 0.6 -- -- 100
2019-10-08 20:00:00 11.2 6 Noroeste 12 Noroeste 1 -- -- 100
2019-10-08 19:00:00 11.9 5 Oeste 20 Oeste 0.6 -- -- 100
2019-10-08 18:00:00 12.4 9 Oeste 25 Oeste 0.4 -- -- 100
2019-10-08 17:00:00 13.6 10 Oeste 20 Oeste 0.6 -- -- 100
2019-10-08 16:00:00 14 9 Oeste 21 Oeste 1.4 -- -- 100
2019-10-08 15:00:00 15.2 6 Oeste 23 Oeste 0.4 -- -- 99
2019-10-08 14:00:00 15.8 7 Sudoeste 21 Sudoeste 0 -- -- 98
2019-10-08 13:00:00 15.6 6 Sudoeste 17 Oeste 0 -- -- 96
2019-10-08 12:00:00 16.1 5 Oeste 17 Sudoeste 0 -- -- 94
2019-10-08 11:00:00 14.8 6 Sudoeste 18 Sudoeste 0 -- -- 100
2019-10-08 10:00:00 13.9 4 Sur 15 Sudoeste 0 -- -- 100
2019-10-08 09:00:00 13.3 3 Sudeste 11 Sudoeste 0 -- -- 100
2019-10-08 08:00:00 13.2 5 Sudoeste 18 Sudoeste 0 -- -- 100
2019-10-08 07:00:00 13.2 4 Sur 14 Sudoeste 0 -- -- 100
2019-10-08 06:00:00 13.2 6 Oeste 16 Sudoeste 0 -- -- 100
2019-10-08 05:00:00 13.2 5 Sudoeste 10 Oeste 0 -- -- 97
2019-10-08 04:00:00 13.3 4 Sudoeste 9 Oeste 0 -- -- 98
2019-10-08 03:00:00 13.8 4 Sudoeste 10 Sudoeste 0 -- -- 99
2019-10-08 02:00:00 14.1 4 Oeste 12 Oeste 0 -- -- 99
2019-10-08 01:00:00 14.2 5 Oeste 14 Sudoeste 0 -- -- 98
2019-10-08 00:00:00 14.2 9 Oeste 20 Oeste 0 -- -- 98
2019-10-07 23:00:00 14.4 10 Oeste 17 Oeste 0 -- -- 93
2019-10-07 22:00:00 15.4 11 Sudoeste 14 Sudoeste 0 -- -- 70
2019-10-07 21:00:00 15.8 10 Oeste 13 Sudoeste 0 -- -- 59
2019-10-07 20:00:00 16.9 7 Oeste 16 Oeste 0 -- -- 51
2019-10-07 19:00:00 19 10 Oeste 17 Oeste 0 -- -- 39
2019-10-07 18:00:00 20.2 9 Oeste 19 Sudoeste 0 -- -- 37
2019-10-07 17:00:00 20.3 10 Oeste 20 Sudoeste 0 -- -- 34
2019-10-07 16:00:00 19.4 10 Oeste 24 Oeste 0 -- -- 34
2019-10-07 15:00:00 19.2 13 Oeste 20 Oeste 0 -- -- 36
2019-10-07 14:00:00 18.6 9 Oeste 14 Oeste 0 -- -- 51
2019-10-07 13:00:00 18.8 4 Oeste 9 Oeste 0 -- -- 38
2019-10-07 12:00:00 17.2 3 Oeste 8 Sudoeste 0 -- -- 38
2019-10-07 11:00:00 14.7 0 Calma 7 Sudoeste 0 -- -- 51
2019-10-07 10:00:00 13.7 6 Sudoeste 17 Sudoeste 0 -- -- 74
2019-10-07 09:00:00 12.9 14 Sudoeste 20 Sudoeste 0 -- -- 82
2019-10-07 08:00:00 11.5 7 Sudoeste 9 Sudoeste 0 -- -- 50
2019-10-07 07:00:00 11.7 9 Sudoeste 12 Oeste 0 -- -- 73
2019-10-07 06:00:00 12.7 9 Sudoeste 13 Sudoeste 0 -- -- 84
2019-10-07 05:00:00 12.6 10 Sudoeste 14 Sudoeste 0 -- -- 53
2019-10-07 04:00:00 12.2 9 Oeste 12 Oeste 0 -- -- 35
2019-10-07 03:00:00 11.6 4 Sur 6 Sudoeste 0 -- -- 36
2019-10-07 02:00:00 11.5 4 Sudoeste 5 Sur 0 -- -- 45
2019-10-07 01:00:00 11.1 3 Sudoeste 4 Oeste 0 -- -- 60
2019-10-07 00:00:00 11.1 2 Sur 4 Sur 0 -- -- 69
2019-10-06 23:00:00 11.8 0 Calma 7 Noroeste 0 -- -- 85
2019-10-06 22:00:00 11.9 4 Oeste 9 Oeste 0 -- -- 82
2019-10-06 21:00:00 12.7 8 Oeste 19 Oeste 0 -- -- 80
2019-10-06 20:00:00 13.1 12 Oeste 18 Oeste 0 -- -- 81
2019-10-06 19:00:00 15.3 9 Oeste 18 Sudoeste 0 -- -- 75
2019-10-06 18:00:00 16.9 8 Oeste 19 Oeste 0 -- -- 72
2019-10-06 17:00:00 16.8 7 Oeste 16 Noroeste 0 -- -- 70
2019-10-06 16:00:00 15.8 5 Oeste 18 Oeste 0 -- -- 78
2019-10-06 15:00:00 15.3 8 Oeste 15 Oeste 0 -- -- 84
2019-10-06 14:00:00 14.8 7 Oeste 17 Oeste 0 -- -- 90
2019-10-06 13:00:00 13.8 3 Noroeste 10 Noroeste 0 -- -- 100
2019-10-06 12:00:00 12.6 0 Calma 7 Sur 0 -- -- 100
2019-10-06 11:00:00 12.2 0 Calma 5 Sudeste 0.2 -- -- 100
2019-10-06 10:00:00 11.8 0 Calma 2 Este 0 -- -- 100
2019-10-06 09:00:00 11.3 0 Calma 4 Noroeste 0 -- -- 100
2019-10-06 08:00:00 11.3 0 Calma 4 Noroeste 0 -- -- 100
2019-10-06 07:00:00 11.3 0 Calma 4 Noroeste 0.4 -- -- 100
2019-10-06 06:00:00 11.1 0 Calma 4 Noroeste 0 -- -- 100
2019-10-06 05:00:00 10.5 0 Calma 4 Noroeste 0 -- -- 100
2019-10-06 04:00:00 10.3 2 Noroeste 4 Noroeste 0 -- -- 100
2019-10-06 03:00:00 9.7 0 Calma 4 Sudeste 0 -- -- 98
2019-10-06 02:00:00 9.4 0 Calma 17 Oeste 0 -- -- 99
2019-10-06 01:00:00 9.1 8 Oeste 13 Noroeste 0 -- -- 98
2019-10-06 00:00:00 8.9 0 Calma 9 Sudoeste 0 -- -- 98
2019-10-05 23:00:00 9.3 8 Sudoeste 15 Oeste 0 -- -- 99
2019-10-05 22:00:00 9.5 11 Oeste 23 Sudoeste 0 -- -- 98
2019-10-05 21:00:00 10.3 15 Oeste 26 Oeste 0 -- -- 96
2019-10-05 20:00:00 12.2 5 Oeste 11 Oeste 0 -- -- 88
2019-10-05 19:00:00 13.5 4 Oeste 13 Noroeste 0 -- -- 86
2019-10-05 18:00:00 14.3 5 Oeste 22 Oeste 0 -- -- 84
2019-10-05 17:00:00 13.6 14 Oeste 26 Oeste 0 -- -- 89
2019-10-05 16:00:00 12.9 13 Oeste 23 Sudoeste 0 -- -- 92
2019-10-05 15:00:00 11.3 9 Sudoeste 23 Oeste 0 -- -- 100
2019-10-05 14:00:00 12.9 5 Oeste 11 Oeste 0 -- -- 100
2019-10-05 13:00:00 11 0 Calma 10 Sudoeste 0 -- -- 100
2019-10-05 12:00:00 10.2 4 Oeste 10 Oeste 0 -- -- 100
2019-10-05 11:00:00 10 3 Sudoeste 11 Oeste 0 -- -- 100
2019-10-05 10:00:00 9.9 3 Sudoeste 12 Oeste 0 -- -- 100
2019-10-05 09:00:00 9.2 6 Oeste 10 Sudoeste 0 -- -- 100
2019-10-05 08:00:00 8.8 5 Sudoeste 7 Oeste 0 -- -- 100
2019-10-05 07:00:00 8.7 0 Calma 2 Oeste 0 -- -- 100
2019-10-05 06:00:00 8.9 0 Calma 3 Sudeste 0 -- -- 100
2019-10-05 05:00:00 8.9 0 Calma 3 Sudeste 0 -- -- 100
2019-10-05 04:00:00 9.1 0 Calma 5 Sudoeste 0 -- -- 100
2019-10-05 03:00:00 9.5 5 Sudoeste 7 Oeste 0 -- -- 100
2019-10-05 02:00:00 9.6 2 Sudeste 4 Sudeste 0 -- -- 100
2019-10-05 01:00:00 9.6 0 Calma 5 Oeste 0 -- -- 100
2019-10-05 00:00:00 9.7 3 Oeste 4 Oeste 0 -- -- 100
2019-10-04 23:00:00 9.9 3 Sudoeste 4 Sudoeste 0 -- -- 99
2019-10-04 22:00:00 10.3 3 Oeste 9 Sudoeste 0 -- -- 98
2019-10-04 21:00:00 10.9 9 Oeste 12 Oeste 0 -- -- 96
2019-10-04 20:00:00 12.2 8 Oeste 14 Oeste 0 -- -- 92
2019-10-04 19:00:00 14 8 Oeste 17 Noroeste 0 -- -- 84
2019-10-04 18:00:00 14.8 6 Oeste 18 Sudoeste 0 -- -- 84
2019-10-04 17:00:00 14 9 Oeste 15 Oeste 0 -- -- 89
2019-10-04 16:00:00 13.5 9 Oeste 19 Sudoeste 0 -- -- 94
2019-10-04 15:00:00 13.2 11 Oeste 20 Oeste 0 -- -- 98
2019-10-04 14:00:00 12.7 8 Oeste 17 Oeste 0 -- -- 100
2019-10-04 13:00:00 12 3 Oeste 8 Sudoeste 0 -- -- 100
2019-10-04 12:00:00 11.7 3 Sudoeste 9 Oeste 0.2 -- -- 100
2019-10-04 11:00:00 11.1 3 Oeste 17 Oeste 0.2 -- -- 100
2019-10-04 10:00:00 10.9 7 Oeste 21 Oeste 0.6 -- -- 100
2019-10-04 09:00:00 11.3 7 Oeste 13 Oeste 0.4 -- -- 100
2019-10-04 08:00:00 12.2 6 Oeste 12 Oeste 0.6 -- -- 100
2019-10-04 07:00:00 12.9 3 Sudoeste 10 Sudoeste 0.6 -- -- 100
2019-10-04 06:00:00 13.1 3 Sudoeste 12 Oeste 0.4 -- -- 100
2019-10-04 05:00:00 13.1 3 Sur 12 Sudoeste 0.2 -- -- 100
2019-10-04 04:00:00 13.2 3 Sudoeste 13 Sudoeste 0.4 -- -- 100
2019-10-04 03:00:00 13.3 4 Sur 15 Oeste 0.2 -- -- 100
2019-10-04 02:00:00 13.5 5 Sudoeste 16 Sudoeste 0.2 -- -- 100
2019-10-04 01:00:00 13.7 3 Sur 14 Sudoeste 0.6 -- -- 100
2019-10-04 00:00:00 13.8 4 Sudoeste 15 Sudoeste 0.8 -- -- 100
2019-10-03 23:00:00 13.8 5 Sudoeste 19 Sudoeste 0.6 -- -- 100
2019-10-03 22:00:00 13.6 10 Sudoeste 20 Sudoeste 0.4 -- -- 100
2019-10-03 21:00:00 13.7 0 Calma 16 Sudoeste 0 -- -- 97
2019-10-03 20:00:00 14.5 5 Oeste 13 Sudoeste 0 -- -- 92
2019-10-03 19:00:00 15.5 3 Sudoeste 9 Sudoeste 0 -- -- 86
2019-10-03 18:00:00 15.9 4 Sur 13 Sudoeste 0 -- -- 83
2019-10-03 17:00:00 15.6 5 Oeste 14 Sudoeste 0 -- -- 85
2019-10-03 16:00:00 16.5 8 Oeste 19 Oeste 0 -- -- 76
2019-10-03 15:00:00 15.5 9 Oeste 18 Sudoeste 0 -- -- 78
2019-10-03 14:00:00 15 8 Oeste 22 Sudoeste 0 -- -- 71
2019-10-03 13:00:00 15 6 Oeste 17 Oeste 0 -- -- 67
2019-10-03 12:00:00 13.9 6 Oeste 19 Oeste 0 -- -- 56
2019-10-03 11:00:00 11.9 6 Sudoeste 17 Oeste 0 -- -- 84
2019-10-03 10:00:00 10.8 5 Sudoeste 19 Oeste 0 -- -- 85
2019-10-03 09:00:00 10.2 9 Sudoeste 17 Oeste 0 -- -- 84
2019-10-03 08:00:00 9.9 11 Sudoeste 20 Sudoeste 0 -- -- 87
2019-10-03 07:00:00 10.1 10 Sudoeste 25 Sudoeste 0 -- -- 87
2019-10-03 06:00:00 9.7 10 Sudoeste 24 Sudoeste 0 -- -- 90
2019-10-03 05:00:00 10.3 9 Oeste 15 Sudoeste 0 -- -- 87
2019-10-03 04:00:00 11.4 9 Sudeste 16 Oeste 0 -- -- 83
2019-10-03 03:00:00 10.3 8 Sur 12 Sudoeste 0 -- -- 90
2019-10-03 02:00:00 10.4 11 Sudoeste 17 Sur 0 -- -- 90
2019-10-03 01:00:00 12 12 Sur 19 Sur 0 -- -- 83
2019-10-03 00:00:00 9.3 8 Sudeste 12 Sudeste 0 -- -- 100
2019-10-02 23:00:00 9.3 2 Este 4 Nordeste 0 -- -- 99
2019-10-02 22:00:00 9.6 2 Este 10 Nordeste 0 -- -- 97
2019-10-02 21:00:00 10 4 Noroeste 14 Noroeste 0 -- -- 95
2019-10-02 20:00:00 11 8 Noroeste 13 Oeste 0 -- -- 90
2019-10-02 19:00:00 13.1 6 Noroeste 12 Noroeste 0 -- -- 77
2019-10-02 18:00:00 13.7 4 Norte 11 Noroeste 0 -- -- 76
2019-10-02 17:00:00 12.9 5 Norte 12 Norte 0 -- -- 79
2019-10-02 16:00:00 11.7 4 Norte 9 Norte 0 -- -- 89
2019-10-02 15:00:00 11.5 0 Calma 7 Nordeste 0 -- -- 89
2019-10-02 14:00:00 11.3 3 Nordeste 10 Oeste 0 -- -- 88
2019-10-02 13:00:00 10.7 6 Oeste 12 Noroeste 0 -- -- 97
2019-10-02 12:00:00 9.6 2 Nordeste 9 Noroeste 0 -- -- 100
2019-10-02 11:00:00 9 3 Noroeste 15 Oeste 0.4 -- -- 100
2019-10-02 10:00:00 8.4 5 Oeste 18 Oeste 0 -- -- 100
2019-10-02 09:00:00 8.3 8 Oeste 18 Sudoeste 0 -- -- 100
2019-10-02 08:00:00 8.2 9 Oeste 19 Oeste 0 -- -- 100
2019-10-02 07:00:00 8.3 10 Oeste 19 Noroeste 0 -- -- 100
2019-10-02 06:00:00 8.3 6 Oeste 23 Oeste 0 -- -- 100
2019-10-02 05:00:00 8.3 9 Oeste 23 Noroeste 0 -- -- 100
2019-10-02 04:00:00 8.3 9 Oeste 25 Oeste 0 -- -- 100
2019-10-02 03:00:00 8.4 9 Oeste 24 Oeste 0 -- -- 99
2019-10-02 02:00:00 8.5 9 Oeste 27 Oeste 0 -- -- 100
2019-10-02 01:00:00 8.9 13 Oeste 37 Oeste 0 -- -- 100
2019-10-02 00:00:00 9.7 12 Oeste 30 Oeste 0 -- -- 100
2019-10-01 23:00:00 10.1 13 Oeste 30 Sudoeste 0 -- -- 98
2019-10-01 22:00:00 10.5 10 Oeste 32 Noroeste 0 -- -- 95
2019-10-01 21:00:00 11.2 12 Oeste 31 Oeste 0 -- -- 91
2019-10-01 20:00:00 12.5 11 Oeste 32 Oeste 0 -- -- 86
2019-10-01 19:00:00 13.3 11 Oeste 27 Oeste 0 -- -- 78
2019-10-01 18:00:00 13.9 12 Oeste 31 Oeste 0 -- -- 73
2019-10-01 17:00:00 14.8 13 Oeste 34 Sudoeste 0 -- -- 70
2019-10-01 16:00:00 15 12 Oeste 33 Oeste 0 -- -- 75
2019-10-01 15:00:00 15.9 9 Sudoeste 33 Sudoeste 0 -- -- 72
2019-10-01 14:00:00 15.2 7 Sudeste 29 Sudeste 0 -- -- 82
2019-10-01 13:00:00 13.6 9 Sudoeste 35 Oeste 0 -- -- 88
2019-10-01 12:00:00 12.2 10 Sudoeste 27 Sudoeste 0 -- -- 100
2019-10-01 11:00:00 11.2 11 Oeste 31 Oeste 0 -- -- 100
2019-10-01 10:00:00 10.9 12 Oeste 29 Oeste 0 -- -- 100
2019-10-01 09:00:00 11.3 8 Sur 26 Sudoeste 0.2 -- -- 100
2019-10-01 08:00:00 11.4 6 Sur 27 Sudoeste 0 -- -- 100
2019-10-01 07:00:00 11.7 10 Sudoeste 25 Sudoeste 0.8 -- -- 99
2019-10-01 06:00:00 11.8 8 Sudoeste 31 Sudoeste 0 -- -- 97
2019-10-01 05:00:00 11.7 9 Sudoeste 26 Oeste 0 -- -- 97
2019-10-01 04:00:00 11.5 8 Sudoeste 27 Sudoeste 0 -- -- 98
2019-10-01 03:00:00 11.6 10 Sudoeste 30 Sudoeste 0 -- -- 100
2019-10-01 02:00:00 12.3 11 Sudoeste 27 Sudoeste 0 -- -- 100
2019-10-01 01:00:00 13 9 Sudoeste 30 Sudoeste 0 -- -- 100
2019-10-01 00:00:00 13.4 11 Oeste 26 Oeste 0 -- -- 99
2019-09-30 23:00:00 13.5 11 Sudoeste 27 Oeste 0 -- -- 98
2019-09-30 22:00:00 13.8 9 Sudoeste 19 Sudoeste 0 -- -- 98
2019-09-30 21:00:00 14.8 9 Oeste 21 Oeste 0 -- -- 96
2019-09-30 20:00:00 16.8 11 Oeste 23 Oeste 0 -- -- 88
2019-09-30 19:00:00 19.1 7 Oeste 22 Sudoeste 0 -- -- 75
2019-09-30 18:00:00 19.8 10 Sudoeste 26 Sudoeste 0 -- -- 71
2019-09-30 17:00:00 20.1 8 Sudoeste 27 Oeste 0 -- -- 71
2019-09-30 16:00:00 18.8 8 Sudoeste 23 Sudoeste 0 -- -- 80
2019-09-30 15:00:00 17.8 9 Sudoeste 23 Sudoeste 0 -- -- 85
2019-09-30 14:00:00 16.7 9 Oeste 20 Sudoeste 0 -- -- 94
2019-09-30 13:00:00 16.9 4 Sudoeste 19 Oeste 0 -- -- 98
2019-09-30 12:00:00 15.4 5 Sudoeste 15 Sur 0 -- -- 100
2019-09-30 11:00:00 14.7 6 Sur 18 Sur 0 -- -- 100
2019-09-30 10:00:00 14.1 4 Sudoeste 18 Sudoeste 0 -- -- 100
2019-09-30 09:00:00 13.9 4 Sudoeste 12 Sudoeste 0 -- -- 100
2019-09-30 08:00:00 13.8 3 Sur 14 Sudoeste 0 -- -- 100
2019-09-30 07:00:00 14.3 5 Sur 15 Sudoeste 0.2 -- -- 100
2019-09-30 06:00:00 14.3 4 Sudoeste 16 Sudoeste 0 -- -- 100
2019-09-30 05:00:00 14.4 4 Sudoeste 14 Sudoeste 0 -- -- 100
2019-09-30 04:00:00 14.6 6 Sudoeste 15 Oeste 0 -- -- 100
2019-09-30 03:00:00 14.6 4 Sudoeste 16 Sur 0 -- -- 100
2019-09-30 02:00:00 14.4 6 Sudoeste 19 Oeste 0 -- -- 100
2019-09-30 01:00:00 14.1 5 Sudoeste 18 Oeste 0 -- -- 100
2019-09-30 00:00:00 14.1 6 Sur 24 Noroeste 0.2 -- -- 100
2019-09-29 23:00:00 14.3 5 Sur 21 Sudoeste 0.2 -- -- 100
2019-09-29 22:00:00 14.3 8 Sur 24 Sudoeste 0.4 -- -- 100
2019-09-29 21:00:00 14.4 6 Sur 18 Sudoeste 0 -- -- 99
2019-09-29 20:00:00 14.6 7 Sudoeste 30 Sudoeste 0 -- -- 99
2019-09-29 19:00:00 14.7 11 Sudoeste 32 Sudoeste 0 -- -- 99
2019-09-29 18:00:00 14.7 14 Sur 33 Sur 0.4 -- -- 100
2019-09-29 17:00:00 14.9 10 Sur 28 Sur 0.8 -- -- 98
2019-09-29 16:00:00 15.3 12 Sudoeste 30 Sudoeste 0 -- -- 97
2019-09-29 15:00:00 14.8 8 Sudoeste 31 Sudoeste 0.6 -- -- 96
2019-09-29 14:00:00 15.2 8 Sudoeste 25 Sudoeste 0 -- -- 93
2019-09-29 13:00:00 14.6 8 Sudoeste 25 Sudoeste 0 -- -- 93
2019-09-29 12:00:00 14.8 6 Sur 27 Oeste 0 -- -- 85
2019-09-29 11:00:00 14.6 7 Sur 29 Sudoeste 0 -- -- 78
2019-09-29 10:00:00 13 9 Sur 21 Sur 0 -- -- 73
2019-09-29 09:00:00 13.4 7 Sur 28 Sudoeste 0 -- -- 75
2019-09-29 08:00:00 13.5 10 Sur 31 Oeste 0 -- -- 72
2019-09-29 07:00:00 13.5 12 Sudoeste 31 Sudoeste 0 -- -- 67
2019-09-29 06:00:00 14 11 Sudoeste 26 Oeste 0 -- -- 64
2019-09-29 05:00:00 13.3 10 Sur 31 Sudoeste 0 -- -- 48
2019-09-29 04:00:00 13.4 14 Sudoeste 34 Sudoeste 0 -- -- 35
2019-09-29 03:00:00 14.1 9 Sudoeste 24 Oeste 0 -- -- 32
2019-09-29 02:00:00 13.3 8 Sudoeste 23 Sudoeste 0 -- -- 53
2019-09-29 01:00:00 14.3 9 Sudoeste 23 Sudoeste 0 -- -- 45
2019-09-29 00:00:00 14.1 10 Sudoeste 26 Sudoeste 0 -- -- 56
2019-09-28 23:00:00 14.3 12 Sudoeste 26 Oeste 0 -- -- 49
2019-09-28 22:00:00 15 9 Sudoeste 24 Sudoeste 0 -- -- 41
2019-09-28 21:00:00 15.4 9 Sudoeste 22 Sudoeste 0 -- -- 52
2019-09-28 20:00:00 16.6 8 Sudoeste 21 Sudoeste 0 -- -- 43
2019-09-28 19:00:00 18.9 7 Sudoeste 22 Sudoeste 0 -- -- 34
2019-09-28 18:00:00 19.2 11 Sudoeste 25 Oeste 0 -- -- 37
2019-09-28 17:00:00 19.5 8 Oeste 19 Sudoeste 0 -- -- 38
2019-09-28 16:00:00 18.8 6 Sudoeste 17 Sudoeste 0 -- -- 58
2019-09-28 15:00:00 17.3 6 Oeste 14 Noroeste 0 -- -- 77
2019-09-28 14:00:00 16.2 4 Oeste 9 Sudoeste 0 -- -- 77
2019-09-28 13:00:00 15.5 4 Noroeste 9 Oeste 0 -- -- 80
2019-09-28 12:00:00 14.1 3 Sudoeste 8 Sur 0 -- -- 74
2019-09-28 11:00:00 11.4 3 Sudeste 6 Sudeste 0 -- -- 94
2019-09-28 10:00:00 9.6 0 Calma 8 Sudeste 0 -- -- 98
2019-09-28 09:00:00 7.9 4 Sur 10 Sudoeste 0 -- -- 100
2019-09-28 08:00:00 7.7 8 Sudoeste 12 Sudoeste 0 -- -- 100
2019-09-28 07:00:00 7.2 4 Sudoeste 6 Sudoeste 0 -- -- 100
2019-09-28 06:00:00 7.4 3 Sur 8 Sudoeste 0 -- -- 100
2019-09-28 05:00:00 7.6 2 Oeste 5 Sudoeste 0 -- -- 100
2019-09-28 04:00:00 7.7 0 Calma 4 Oeste 0 -- -- 100
2019-09-28 03:00:00 8.3 2 Oeste 9 Oeste 0 -- -- 100
2019-09-28 02:00:00 9.2 6 Sudoeste 8 Oeste 0 -- -- 100
2019-09-28 01:00:00 9.8 5 Oeste 9 Noroeste 0 -- -- 100
2019-09-28 00:00:00 10.2 5 Oeste 10 Noroeste 0 -- -- 100
2019-09-27 23:00:00 10.5 5 Oeste 14 Oeste 0 -- -- 99
2019-09-27 22:00:00 11 6 Oeste 19 Oeste 0 -- -- 96
2019-09-27 21:00:00 11.6 6 Oeste 24 Oeste 0 -- -- 92
2019-09-27 20:00:00 12.6 8 Oeste 23 Noroeste 0 -- -- 88
2019-09-27 19:00:00 13.3 8 Oeste 21 Sudoeste 0 -- -- 89
2019-09-27 18:00:00 13.8 7 Oeste 21 Sudoeste 0 -- -- 91
2019-09-27 17:00:00 14.7 6 Sudeste 21 Sudoeste 0 -- -- 93
2019-09-27 16:00:00 13.2 6 Sur 21 Sudoeste 0 -- -- 100
2019-09-27 15:00:00 12.5 6 Sudoeste 24 Sur 0 -- -- 100
2019-09-27 14:00:00 12.3 10 Sur 27 Sur 0.2 -- -- 100
2019-09-27 13:00:00 12.6 11 Sur 31 Sur 0.6 -- -- 100
2019-09-27 12:00:00 12.8 8 Sudoeste 24 Sudoeste 0 -- -- 100
2019-09-27 11:00:00 12.6 9 Sudoeste 32 Sudoeste 0.6 -- -- 100
2019-09-27 10:00:00 12 5 Sur 18 Sudoeste 0.2 -- -- 100
2019-09-27 09:00:00 12 5 Sudoeste 23 Sudoeste 0 -- -- 99
2019-09-27 08:00:00 11.7 5 Sur 23 Sudoeste 0 -- -- 99
2019-09-27 07:00:00 11.7 8 Sudoeste 19 Sudoeste 0 -- -- 98
2019-09-27 06:00:00 11.3 6 Sur 22 Oeste 0 -- -- 96
2019-09-27 05:00:00 11.1 8 Sur 19 Sur 0 -- -- 96
2019-09-27 04:00:00 10.8 4 Sudoeste 24 Sudoeste 0 -- -- 97
2019-09-27 03:00:00 10.1 8 Sudoeste 17 Sudoeste 0 -- -- 95
2019-09-27 02:00:00 9.9 7 Sudoeste 20 Sudoeste 0 -- -- 94
2019-09-27 01:00:00 9.5 7 Sudoeste 18 Sudoeste 0 -- -- 96
2019-09-27 00:00:00 9.8 4 Oeste 13 Sudoeste 0 -- -- 96
2019-09-26 23:00:00 9.9 8 Oeste 28 Oeste 0 -- -- 97
2019-09-26 22:00:00 10.6 12 Oeste 30 Oeste 0 -- -- 95
2019-09-26 21:00:00 12 12 Oeste 25 Oeste 0 -- -- 91
2019-09-26 20:00:00 14.6 8 Oeste 23 Oeste 0 -- -- 78
2019-09-26 19:00:00 17.1 9 Sudoeste 21 Sudoeste 0 -- -- 71
2019-09-26 18:00:00 17.7 8 Sudoeste 23 Sudoeste 0 -- -- 67
2019-09-26 17:00:00 17.3 7 Sudoeste 29 Sudoeste 0 -- -- 68
2019-09-26 16:00:00 16.6 8 Sudoeste 27 Sudoeste 0 -- -- 69
2019-09-26 15:00:00 16 10 Sudoeste 23 Oeste 0 -- -- 68
2019-09-26 14:00:00 14.9 6 Sudoeste 19 Oeste 0 -- -- 74
2019-09-26 13:00:00 13.2 10 Sudoeste 24 Oeste 0 -- -- 79
2019-09-26 12:00:00 11.6 8 Oeste 17 Oeste 0 -- -- 86
2019-09-26 11:00:00 10.2 7 Sudoeste 20 Sudoeste 0 -- -- 91
2019-09-26 10:00:00 9.3 7 Sudoeste 19 Sudoeste 0 -- -- 94
2019-09-26 09:00:00 8.9 6 Sudoeste 18 Sudoeste 0 -- -- 95
2019-09-26 08:00:00 8.9 6 Sudoeste 17 Sudoeste 0 -- -- 95
2019-09-26 07:00:00 8.9 6 Sudoeste 18 Sudoeste 0 -- -- 96
2019-09-26 06:00:00 8.9 3 Este 15 Sur 0 -- -- 98
2019-09-26 05:00:00 8.8 3 Noroeste 17 Sur 0 -- -- 97
2019-09-26 04:00:00 9.1 5 Sudoeste 18 Sudoeste 0 -- -- 95
2019-09-26 03:00:00 9.6 6 Sudoeste 16 Sur 0 -- -- 97
2019-09-26 02:00:00 9.6 4 Sudoeste 21 Sur 0 -- -- 98
2019-09-26 01:00:00 9.7 5 Sur 22 Sur 0 -- -- 97
2019-09-26 00:00:00 9.9 5 Sur 20 Oeste 0 -- -- 95
2019-09-25 23:00:00 10.2 4 Sur 18 Sur 0 -- -- 96
2019-09-25 22:00:00 10.8 4 Noroeste 14 Oeste 0 -- -- 95
2019-09-25 21:00:00 11.2 6 Sudoeste 16 Sudoeste 0 -- -- 94
2019-09-25 20:00:00 11.5 5 Sudoeste 20 Sudoeste 0 -- -- 93
2019-09-25 19:00:00 11.7 6 Sur 20 Sur 0 -- -- 92
2019-09-25 18:00:00 12 5 Sudoeste 17 Sudoeste 0 -- -- 90
2019-09-25 17:00:00 12 6 Sudoeste 17 Sudoeste 0 -- -- 89
2019-09-25 16:00:00 11.6 5 Sudoeste 15 Sur 0 -- -- 91
2019-09-25 15:00:00 11.7 5 Sudoeste 19 Oeste 0 -- -- 89
2019-09-25 14:00:00 11.1 6 Sudoeste 15 Sudoeste 0 -- -- 94
2019-09-25 13:00:00 10.6 5 Sur 18 Sudoeste 0 -- -- 100
2019-09-25 12:00:00 10 4 Sur 17 Sudoeste 0 -- -- 100
2019-09-25 11:00:00 9.3 5 Sur 17 Oeste 0 -- -- 100
2019-09-25 10:00:00 8.8 5 Sur 18 Sur 0 -- -- 100
2019-09-25 09:00:00 8.5 5 Sur 16 Sur 0.2 -- -- 100
2019-09-25 08:00:00 8.3 5 Sur 15 Sur 0 -- -- 100
2019-09-25 07:00:00 8.3 5 Sur 17 Sudoeste 0 -- -- 100
2019-09-25 06:00:00 8.4 4 Sudeste 17 Sudoeste 0 -- -- 100
2019-09-25 05:00:00 8.5 8 Sudoeste 28 Sudoeste 0.2 -- -- 100
2019-09-25 04:00:00 8.6 6 Sur 23 Sur 0 -- -- 100
2019-09-25 03:00:00 8.5 7 Sur 22 Oeste 0.4 -- -- 100
2019-09-25 02:00:00 8.6 6 Sur 18 Oeste 0 -- -- 100
2019-09-25 01:00:00 8.7 5 Sudoeste 16 Oeste 0 -- -- 98
2019-09-25 00:00:00 8.9 5 Sudoeste 18 Sur 0 -- -- 98
2019-09-24 23:00:00 9.2 8 Sur 20 Sur 0 -- -- 96
2019-09-24 22:00:00 9.9 6 Sudoeste 28 Sudoeste 0 -- -- 93
2019-09-24 21:00:00 10.4 10 Oeste 23 Sudoeste 0 -- -- 89
2019-09-24 20:00:00 11.5 10 Oeste 30 Oeste 0 -- -- 81
2019-09-24 19:00:00 12.7 11 Sudoeste 32 Sudoeste 0 -- -- 78
2019-09-24 18:00:00 12.7 12 Oeste 32 Oeste 0 -- -- 84
2019-09-24 17:00:00 13.5 9 Sudoeste 32 Oeste 0.2 -- -- 82
2019-09-24 16:00:00 13.2 7 Sur 24 Oeste 0 -- -- 89
2019-09-24 15:00:00 13.2 6 Sudoeste 24 Oeste 0 -- -- 93
2019-09-24 14:00:00 13.4 7 Sudoeste 27 Sudoeste 0 -- -- 100
2019-09-24 13:00:00 12.3 8 Sudoeste 36 Oeste 0 -- -- 100
2019-09-24 12:00:00 12.5 8 Oeste 29 Sudoeste 2.6 -- -- 100
2019-09-24 11:00:00 13.1 7 Sur 29 Sudoeste 0.6 -- -- 100
2019-09-24 10:00:00 13.3 12 Sur 35 Sudoeste 0.4 -- -- 100
2019-09-24 09:00:00 13.3 11 Sur 37 Sudoeste 0.4 -- -- 100
2019-09-24 08:00:00 13.1 13 Sudoeste 38 Sudoeste 0.2 -- -- 100
2019-09-24 07:00:00 13.1 18 Sudoeste 50 Oeste 1 -- -- 100
2019-09-24 06:00:00 12.9 19 Sudoeste 52 Sudoeste 0.8 -- -- 98
2019-09-24 05:00:00 12.7 14 Sur 43 Sur 0.6 -- -- 96
2019-09-24 04:00:00 12.9 15 Sudoeste 46 Sudoeste 0.6 -- -- 95
2019-09-24 03:00:00 13.4 21 Sur 58 Oeste 0 -- -- 91
2019-09-24 02:00:00 13.5 13 Sur 46 Sur 0 -- -- 91
2019-09-24 01:00:00 13.4 17 Sur 55 Sur 0 -- -- 89
2019-09-24 00:00:00 13.7 23 Sur 44 Sur 0 -- -- 86
2019-09-23 23:00:00 14.3 15 Sur 43 Sudoeste 0 -- -- 84
2019-09-23 22:00:00 14.1 18 Sur 50 Sur 0 -- -- 83
2019-09-23 21:00:00 14.2 21 Sur 41 Sur 0 -- -- 84
2019-09-23 20:00:00 14.2 15 Sur 36 Sudoeste 0 -- -- 79
2019-09-23 19:00:00 13.8 12 Sur 32 Sudoeste 0 -- -- 79
2019-09-23 18:00:00 13.5 11 Sur 31 Sur 0 -- -- 82
2019-09-23 17:00:00 13.9 9 Sur 29 Sur 0 -- -- 79
2019-09-23 16:00:00 12.5 12 Sudoeste 35 Sudoeste 0.4 -- -- 88
2019-09-23 15:00:00 12.6 13 Sur 35 Sur 0.4 -- -- 84
2019-09-23 14:00:00 12.8 14 Sudoeste 36 Sudoeste 0 -- -- 76
2019-09-23 13:00:00 12.3 12 Sur 30 Sudoeste 0 -- -- 77
2019-09-23 12:00:00 12 11 Sudoeste 40 Sudoeste 0 -- -- 78
2019-09-23 11:00:00 11.1 15 Sur 39 Sur 0 -- -- 81
2019-09-23 10:00:00 10.2 10 Sur 31 Sudoeste 0 -- -- 87
2019-09-23 09:00:00 9.6 13 Sur 32 Sudoeste 0 -- -- 88
2019-09-23 08:00:00 8.9 14 Sur 27 Sur 0 -- -- 94
2019-09-23 07:00:00 8.9 11 Sur 27 Sur 0 -- -- 94
2019-09-23 06:00:00 8.8 10 Sur 27 Sudoeste 0 -- -- 95
2019-09-23 05:00:00 8.8 7 Sur 28 Oeste 0 -- -- 95
2019-09-23 04:00:00 8.7 8 Sudoeste 26 Sudoeste 0 -- -- 95
2019-09-23 03:00:00 8.7 10 Sur 27 Sur 0 -- -- 96
2019-09-23 02:00:00 8.9 8 Sudoeste 31 Sudoeste 0 -- -- 97
2019-09-23 01:00:00 9.2 10 Sur 22 Sudoeste 0 -- -- 95
2019-09-23 00:00:00 9.7 7 Sudoeste 23 Sudoeste 0 -- -- 95
2019-09-22 23:00:00 9.7 8 Sudoeste 20 Sur 0 -- -- 92
2019-09-22 22:00:00 9.9 6 Sudoeste 19 Sur 0 -- -- 90
2019-09-22 21:00:00 11.1 7 Oeste 18 Oeste 0 -- -- 86
2019-09-22 20:00:00 11.8 8 Sudoeste 18 Sudoeste 0 -- -- 83
2019-09-22 19:00:00 12.8 4 Oeste 18 Oeste 0 -- -- 85
2019-09-22 18:00:00 13.5 5 Oeste 23 Oeste 0 -- -- 85
2019-09-22 17:00:00 12.2 4 Sudoeste 17 Sudoeste 0 -- -- 91
2019-09-22 16:00:00 11.5 8 Oeste 19 Oeste 2.4 -- -- 97
2019-09-22 15:00:00 12.5 9 Sudoeste 27 Sudoeste 0 -- -- 84
2019-09-22 14:00:00 12.4 10 Sudoeste 27 Sudoeste 0 -- -- 82
2019-09-22 13:00:00 12.4 9 Sudoeste 30 Sur 0 -- -- 81
2019-09-22 12:00:00 10.7 9 Sudoeste 29 Oeste 0 -- -- 89
2019-09-22 11:00:00 9.8 9 Sudoeste 31 Sudoeste 0 -- -- 92
2019-09-22 10:00:00 9.3 8 Sur 30 Sudoeste 0 -- -- 91
2019-09-22 09:00:00 8.1 11 Sudoeste 32 Sudoeste 0 -- -- 93
2019-09-22 08:00:00 7.9 10 Sudoeste 32 Sur 0 -- -- 93
2019-09-22 07:00:00 8.2 12 Sudoeste 37 Sudoeste 0 -- -- 95
2019-09-22 06:00:00 8.7 12 Sur 33 Oeste 0 -- -- 99
2019-09-22 05:00:00 9.3 13 Sudoeste 34 Oeste 0 -- -- 98
2019-09-22 04:00:00 9.6 13 Sudoeste 33 Oeste 0 -- -- 97
2019-09-22 03:00:00 9.6 11 Sudoeste 40 Sudoeste 0 -- -- 98
2019-09-22 02:00:00 9.3 13 Sur 38 Sudoeste 0 -- -- 97
2019-09-22 01:00:00 9.3 12 Sur 40 Sur 0 -- -- 98
2019-09-22 00:00:00 9.2 13 Sur 36 Sur 0 -- -- 97
2019-09-21 23:00:00 9.2 10 Sur 32 Sudoeste 0 -- -- 98
2019-09-21 22:00:00 9.2 6 Sur 48 Sudoeste 0.6 -- -- 97
2019-09-21 21:00:00 9.5 19 Sudoeste 47 Sudoeste 4.4 -- -- 90
2019-09-21 20:00:00 13.3 13 Sudoeste 37 Oeste 6 -- -- 98
2019-09-21 19:00:00 14.2 12 Sur 36 Sur 0.6 -- -- 96
2019-09-21 18:00:00 14.6 14 Sur 44 Oeste 0.2 -- -- 94
2019-09-21 17:00:00 15.3 15 Sur 30 Sur 0 -- -- 90
2019-09-21 16:00:00 15.3 13 Sur 28 Sur 0 -- -- 90
2019-09-21 15:00:00 15.4 9 Sur 25 Sur 0 -- -- 87
2019-09-21 14:00:00 14.7 8 Sur 28 Sur 0.2 -- -- 90
2019-09-21 13:00:00 14.1 13 Sur 31 Sur 0.2 -- -- 92
2019-09-21 12:00:00 13.7 9 Sur 35 Sur 0 -- -- 93
2019-09-21 11:00:00 12.9 11 Sudeste 36 Sudeste 0 -- -- 95
2019-09-21 10:00:00 12.7 7 Sudeste 23 Sur 0.2 -- -- 95
2019-09-21 09:00:00 12.7 12 Sur 36 Sur 1 -- -- 93
2019-09-21 08:00:00 13.4 12 Sur 31 Sudeste 0 -- -- 85
2019-09-21 07:00:00 13.2 15 Sur 30 Sur 0 -- -- 83
2019-09-21 06:00:00 13.2 12 Sudeste 24 Sur 0 -- -- 85
2019-09-21 05:00:00 13.1 12 Sur 27 Sur 0 -- -- 86
2019-09-21 04:00:00 12.9 12 Sur 25 Sur 0 -- -- 87
2019-09-21 03:00:00 13.4 8 Sur 28 Sur 0 -- -- 88
2019-09-21 02:00:00 13.1 13 Sudoeste 24 Sudoeste 0 -- -- 95
2019-09-21 01:00:00 12.8 15 Sudoeste 26 Oeste 0 -- -- 92
2019-09-21 00:00:00 14 5 Sur 17 Sudoeste 0 -- -- 92
2019-09-20 23:00:00 14.1 8 Sur 16 Sudoeste 0 -- -- 92
2019-09-20 22:00:00 14.2 5 Sudoeste 25 Oeste 0 -- -- 97
2019-09-20 21:00:00 14.7 15 Oeste 28 Oeste 0 -- -- 95
2019-09-20 20:00:00 16.2 13 Oeste 23 Sudoeste 0 -- -- 84
2019-09-20 19:00:00 15.8 8 Sudeste 29 Sur 1 -- -- 83
2019-09-20 18:00:00 15.8 19 Sur 36 Sudeste 0.8 -- -- 75
2019-09-20 17:00:00 17.4 18 Sudoeste 34 Sudoeste 2.8 -- -- 73
2019-09-20 16:00:00 19 10 Oeste 24 Sudoeste 0.4 -- -- 75
2019-09-20 15:00:00 21.1 4 Sudoeste 11 Oeste 0 -- -- 67
2019-09-20 14:00:00 22.4 4 Nordeste 14 Este 0 -- -- 57
2019-09-20 13:00:00 20.6 3 Este 28 Sudeste 0 -- -- 67
2019-09-20 12:00:00 18.4 8 Sudeste 32 Sudeste 0 -- -- 70
2019-09-20 11:00:00 18.5 9 Sudeste 31 Este 0 -- -- 68
2019-09-20 10:00:00 17.9 10 Sudeste 38 Sudeste 0 -- -- 68
2019-09-20 09:00:00 16.6 13 Sudeste 33 Este 0 -- -- 71
2019-09-20 08:00:00 15.9 10 Sudeste 30 Este 0 -- -- 74
2019-09-20 07:00:00 16.4 12 Sudeste 35 Sudeste 0 -- -- 72
2019-09-20 06:00:00 16.1 11 Sudeste 33 Sudeste 0 -- -- 73
2019-09-20 05:00:00 16 12 Sudeste 30 Sudeste 0 -- -- 74
2019-09-20 04:00:00 16.4 12 Sudeste 26 Sudeste 0 -- -- 74
2019-09-20 03:00:00 16.7 12 Sudeste 22 Este 0 -- -- 74
2019-09-20 02:00:00 16.4 10 Sudeste 18 Sudeste 0 -- -- 80
2019-09-20 01:00:00 14.9 4 Sudeste 9 Sudeste 0 -- -- 94
2019-09-20 00:00:00 15.2 0 Calma 5 Este 0 -- -- 94
2019-09-19 23:00:00 15.5 0 Calma 5 Nordeste 0 -- -- 95
2019-09-19 22:00:00 15.6 0 Calma 5 Norte 0 -- -- 93
2019-09-19 21:00:00 15.5 2 Nordeste 11 Oeste 0 -- -- 90
2019-09-19 20:00:00 16.4 3 Sudoeste 6 Oeste 0.6 -- -- 91
2019-09-19 19:00:00 17 8 Noroeste 46 Oeste 7.2 -- -- 76
2019-09-19 18:00:00 21.8 4 Norte 10 Norte 0 -- -- 62
2019-09-19 17:00:00 22.9 5 Oeste 15 Oeste 0 -- -- 54
2019-09-19 16:00:00 20.7 8 Oeste 18 Noroeste 0 -- -- 67
2019-09-19 15:00:00 22.4 5 Oeste 15 Noroeste 0 -- -- 66
2019-09-19 14:00:00 21.1 4 Norte 12 Nordeste 0 -- -- 69
2019-09-19 13:00:00 20.8 2 Nordeste 8 Norte 0 -- -- 77
2019-09-19 12:00:00 19.6 2 Este 9 Sudeste 0 -- -- 78
2019-09-19 11:00:00 18.6 3 Este 14 Sur 0 -- -- 79
2019-09-19 10:00:00 17.2 7 Sur 19 Este 0 -- -- 78
2019-09-19 09:00:00 15.5 10 Sudeste 18 Sudeste 0 -- -- 85
2019-09-19 08:00:00 15.8 6 Sur 14 Sudeste 0 -- -- 79
2019-09-19 07:00:00 16.1 11 Sudeste 20 Sudeste 0 -- -- 79
2019-09-19 06:00:00 16 13 Sudeste 23 Sudeste 0 -- -- 79
2019-09-19 05:00:00 16 12 Sudeste 22 Sudeste 0 -- -- 81
2019-09-19 04:00:00 15.6 13 Sudeste 19 Sudeste 0 -- -- 87
2019-09-19 03:00:00 14.9 8 Sudeste 12 Sudeste 0 -- -- 99
2019-09-19 02:00:00 14.7 4 Este 10 Sudeste 0 -- -- 99
2019-09-19 01:00:00 15.2 3 Este 10 Este 0 -- -- 98
2019-09-19 00:00:00 15.6 2 Este 6 Este 0 -- -- 96
2019-09-18 23:00:00 16 0 Calma 5 Este 0 -- -- 93
2019-09-18 22:00:00 16.6 2 Nordeste 8 Este 0 -- -- 90
2019-09-18 21:00:00 17.4 4 Nordeste 13 Nordeste 0 -- -- 84
2019-09-18 20:00:00 18.3 5 Noroeste 17 Noroeste 0 -- -- 84
2019-09-18 19:00:00 20.4 9 Noroeste 17 Noroeste 0 -- -- 70
2019-09-18 18:00:00 22.2 5 Norte 18 Noroeste 0 -- -- 56
2019-09-18 17:00:00 23.1 5 Oeste 17 Oeste 0 -- -- 58
2019-09-18 16:00:00 21.9 5 Norte 12 Norte 0 -- -- 55
2019-09-18 15:00:00 21.1 5 Norte 13 Nordeste 0 -- -- 57
2019-09-18 14:00:00 20.2 4 Nordeste 10 Nordeste 0 -- -- 63
2019-09-18 13:00:00 19.5 2 Nordeste 8 Sur 0 -- -- 69
2019-09-18 12:00:00 17.2 2 Norte 8 Norte 0 -- -- 74
2019-09-18 11:00:00 17.3 0 Calma 12 Sudeste 0 -- -- 71
2019-09-18 10:00:00 16.5 3 Este 21 Sudeste 0 -- -- 75
2019-09-18 09:00:00 14.7 10 Sudeste 21 Sudeste 0 -- -- 75
2019-09-18 08:00:00 13.1 5 Sudeste 13 Este 0 -- -- 85
2019-09-18 07:00:00 13.1 3 Este 22 Sudeste 0 -- -- 88
2019-09-18 06:00:00 14.4 6 Sudeste 23 Sur 0 -- -- 79
2019-09-18 05:00:00 14.4 13 Sudeste 25 Sudeste 0 -- -- 79
2019-09-18 04:00:00 14.2 14 Sudeste 32 Sudeste 0 -- -- 82
2019-09-18 03:00:00 13.7 13 Sudeste 25 Sudeste 0 -- -- 85
2019-09-18 02:00:00 12.2 4 Sudeste 9 Este 0 -- -- 88
2019-09-18 01:00:00 12.5 3 Este 14 Nordeste 0 -- -- 88
2019-09-18 00:00:00 13 3 Sudeste 21 Sur 0 -- -- 84
2019-09-17 23:00:00 14.8 17 Sur 40 Sur 0.2 -- -- 72
2019-09-17 22:00:00 14.4 6 Sudeste 18 Este 0 -- -- 92
2019-09-17 21:00:00 14.3 0 Calma 13 Nordeste 0 -- -- 91